ORBCOMM-X 1 21576U 91050C 26036.78739882 .00000496 00000+0 15923-3 0 9996 2 21576 98.3136 103.2927 0003506 181.1002 179.0182 14.43492347815816 ORBCOMM FM01 1 23545U 95017A 26036.87174808 .00014448 00000+0 13549-2 0 9995 2 23545 69.9605 209.7970 0006055 296.7203 63.3333 14.94091517647363 ORBCOMM FM02 1 23546U 95017B 26036.94915664 .00016095 00000+0 14363-2 0 9992 2 23546 69.9609 227.8610 0007271 300.1721 59.8716 14.96004201647053 ORBCOMM FM08 1 25112U 97084A 26036.93342576 .00002533 00000+0 73107-3 0 9998 2 25112 45.0143 324.9453 0007523 351.3453 8.7268 14.46859743475212 ORBCOMM FM10 1 25113U 97084B 26036.88333660 .00002322 00000+0 67738-3 0 9996 2 25113 45.0156 328.0140 0006125 321.3466 38.6947 14.46588996650347 ORBCOMM FM11 1 25114U 97084C 26036.86006456 .00002634 00000+0 76697-3 0 9995 2 25114 45.0142 329.1924 0006957 322.4083 37.6281 14.46328332475290 ORBCOMM FM12 1 25115U 97084D 26036.88821804 .00002363 00000+0 69193-3 0 9992 2 25115 45.0149 328.7820 0006004 320.8962 39.1455 14.46355360475098 ORBCOMM FM09 1 25116U 97084E 26036.87460481 .00002347 00000+0 68980-3 0 9997 2 25116 45.0155 330.0473 0007147 310.3739 49.6488 14.46184447475291 ORBCOMM FM05 1 25117U 97084F 26036.88117208 .00002329 00000+0 67401-3 0 9992 2 25117 45.0151 325.1871 0003594 325.6901 34.3718 14.46968611474443 ORBCOMM FM06 1 25118U 97084G 26036.85704829 .00003006 00000+0 85508-3 0 9992 2 25118 45.0146 324.7527 0002512 326.1580 77.5475 14.47144964475368 ORBCOMM FM07 1 25119U 97084H 26036.86057263 .00002820 00000+0 80454-3 0 9995 2 25119 45.0139 325.4783 0004375 321.3069 38.7469 14.47150058475353 ORBCOMM FM03 1 25158U 98007B 26036.54414507 .00001727 00000+0 64126-3 0 9990 2 25158 107.9663 255.1960 0045043 202.7782 157.1359 14.35229577457515 ORBCOMM FM04 1 25159U 98007C 26036.55838499 .00001605 00000+0 59799-3 0 9997 2 25159 107.9650 258.6048 0040758 200.2280 159.7246 14.35459585457709 ORBCOMM FM17 1 25413U 98046A 26036.77308281 .00001129 00000+0 43604-3 0 9997 2 25413 44.9928 234.7314 0002156 310.8110 49.2550 14.35678128436738 ORBCOMM FM18 1 25414U 98046B 26036.70301637 .00002454 00000+0 82722-3 0 9995 2 25414 44.9914 146.0530 0002884 9.0255 351.0645 14.39354575437881 ORBCOMM FM19 1 25415U 98046C 26036.78141322 .00002381 00000+0 80706-3 0 9996 2 25415 44.9927 148.0342 0001811 351.7609 175.1021 14.39176973437841 ORBCOMM FM20 1 25416U 98046D 26036.70384093 .00001678 00000+0 59841-3 0 9997 2 25416 44.9933 154.9115 0000744 202.8962 157.1853 14.37820877437867 ORBCOMM FM16 1 25417U 98046E 26036.75452083 .00002514 00000+0 83979-3 0 9997 2 25417 44.9921 142.9984 0002542 34.5231 325.5783 14.39739956437900 ORBCOMM FM15 1 25418U 98046F 26036.72070164 .00002203 00000+0 74723-3 0 9993 2 25418 44.9954 149.0222 0002285 36.8369 323.2637 14.39361743437886 ORBCOMM FM14 1 25419U 98046G 26036.67463583 .00002261 00000+0 75930-3 0 9994 2 25419 44.9941 146.7488 0001078 20.0983 339.9908 14.39793375437859 ORBCOMM FM13 1 25420U 98046H 26036.72602576 .00001854 00000+0 64904-3 0 9995 2 25420 44.9963 156.8931 0003526 5.7264 354.3624 14.38366493436853 ORBCOMM FM21 1 25475U 98053A 26036.93142488 .00001093 00000+0 40521-3 0 9991 2 25475 45.0068 242.0900 0001230 341.9801 18.1004 14.37942149430888 ORBCOMM FM22 1 25476U 98053B 26036.92529169 .00001393 00000+0 49148-3 0 9993 2 25476 45.0059 234.9440 0002707 327.6263 32.4419 14.39153363430930 ORBCOMM FM23 1 25477U 98053C 26036.89707426 .00001167 00000+0 42734-3 0 9997 2 25477 45.0069 243.9878 0002123 326.2683 33.8030 14.38198053431030 ORBCOMM FM24 1 25478U 98053D 26036.87676851 .00001354 00000+0 48187-3 0 9999 2 25478 45.0064 240.4814 0001904 336.9786 23.0977 14.38833874431090 ORBCOMM FM25 1 25479U 98053E 26036.92244832 .00001270 00000+0 45509-3 0 9998 2 25479 45.0055 238.5723 0004209 344.3736 15.6982 14.38802381431392 ORBCOMM FM26 1 25480U 98053F 26036.88678986 .00001021 00000+0 38293-3 0 9992 2 25480 45.0053 236.9740 0006124 359.1702 0.9135 14.37745418431278 ORBCOMM FM27 1 25481U 98053G 26036.76579781 .00001538 00000+0 54104-3 0 9995 2 25481 45.0040 239.4264 0000682 23.8232 336.2648 14.38842971431301 ORBCOMM FM28 1 25482U 98053H 26036.70935943 .00001791 00000+0 62136-3 0 9991 2 25482 45.0039 176.9211 0003360 40.5204 319.5894 14.38951326431984 ORBCOMM FM30 1 25980U 99065A 26036.71123175 .00001393 00000+0 50383-3 0 9994 2 25980 45.0317 63.8772 0004229 106.3140 253.8174 14.37910523368058 ORBCOMM FM31 1 25981U 99065B 26036.48723298 .00001322 00000+0 48117-3 0 9995 2 25981 45.0232 58.3837 0002440 157.0369 203.0589 14.37832394367577 ORBCOMM FM32 1 25982U 99065C 26036.47883809 .00001267 00000+0 47186-3 0 9993 2 25982 45.0157 76.5578 0004607 137.0465 223.0744 14.36896709368148 ORBCOMM FM33 1 25983U 99065D 26036.84359870 .00001641 00000+0 55299-3 0 9991 2 25983 45.0298 327.5188 0006764 161.8380 198.2713 14.40715261369753 ORBCOMM FM36 1 25984U 99065E 26036.48342604 .00001714 00000+0 59738-3 0 9992 2 25984 45.0393 64.6846 0002391 344.3455 15.7320 14.38890251368018 ORBCOMM FM35 1 25985U 99065F 26036.49714580 .00001294 00000+0 47269-3 0 9999 2 25985 45.0394 71.5683 0002527 160.5503 199.5442 14.37791510368359 ORBCOMM FM34 1 25986U 99065G 26036.95253130 .00001164 00000+0 43059-3 0 9999 2 25986 45.0391 69.9036 0001632 68.1808 291.9214 14.37715465368536 ORBCOMM FM38 1 33060U 08031A 26036.71374534 .00003051 00000+0 40158-3 0 9994 2 33060 48.4388 281.3696 0004737 325.1529 34.9077 14.82583582949381 ORBCOMM FM41 1 33061U 08031B 26036.93809345 .00002574 00000+0 34676-3 0 9999 2 33061 48.4428 288.9158 0004116 309.4892 145.7320 14.82122610948890 ORBCOMM FM29 1 33062U 08031C 26036.90230582 .00002973 00000+0 39469-3 0 9996 2 33062 48.4384 296.5667 0005735 310.2099 145.6903 14.82291257948800 ORBCOMM FM39 1 33063U 08031D 26036.81691801 .00002930 00000+0 40426-3 0 9990 2 33063 48.4407 323.9268 0006827 281.2365 78.7782 14.80690980948406 ORBCOMM FM37 1 33064U 08031E 26036.90601481 .00002485 00000+0 34551-3 0 9993 2 33064 48.4399 311.6615 0005353 300.1612 146.2674 14.80883689948676 ORBCOMM FM40 1 33065U 08031F 26036.76810145 .00003681 00000+0 46885-3 0 9999 2 33065 48.4408 292.1887 0006170 315.8201 87.3244 14.83484384948824 VESSELSAT 1 1 37840U 11058C 26036.54960066 .00000427 00000+0 88262-4 0 9992 2 37840 19.9614 121.7431 0013470 233.6002 126.3160 14.11413213739317 ORBCOMM FM109 1 40086U 14040A 26036.86908054 .00001102 00000+0 27039-3 0 9991 2 40086 47.0049 352.2711 0002293 321.0045 39.0676 14.58670283615171 ORBCOMM FM107 1 40087U 14040B 26036.26904153 .00001271 00000+0 30581-3 0 9995 2 40087 47.0066 355.9730 0001836 277.6940 82.3737 14.58747173615165 ORBCOMM FM106 1 40088U 14040C 26036.73390101 .00001840 00000+0 33288-3 0 9999 2 40088 47.0594 156.9600 0015558 72.4869 287.7721 14.70220124617830 ORBCOMM FM111 1 40089U 14040D 26036.88286638 .00004713 00000+0 52529-3 0 9996 2 40089 47.0017 333.9885 0028984 233.7973 126.0244 14.88145491625014 ORBCOMM FM104 1 40090U 14040E 26036.37817054 .00000902 00000+0 23543-3 0 9994 2 40090 47.0060 31.8934 0016207 194.3713 165.6713 14.57115275614620 ORBCOMM FM103 1 40091U 14040F 26036.93964484 .00001052 00000+0 25981-3 0 9992 2 40091 47.0069 353.5003 0002465 277.6996 82.3610 14.58655093598226 ORBCOMM FM114 1 41179U 15081A 26036.88709393 .00000759 00000+0 19754-3 0 9990 2 41179 47.0041 262.6962 0002568 312.1973 47.8694 14.58674470538583 ORBCOMM FM119 1 41180U 15081B 26036.74816865 .00001159 00000+0 28279-3 0 9997 2 41180 46.9992 172.7094 0000522 353.5114 6.5765 14.58618231539810 ORBCOMM FM105 1 41181U 15081C 26036.87669777 .00000398 00000+0 15646-3 0 9998 2 41181 46.9998 199.9345 0002126 279.7034 80.3606 14.45465162534558 ORBCOMM FM110 1 41182U 15081D 26036.67075418 .00001081 00000+0 26598-3 0 9998 2 41182 47.0013 263.1980 0002811 196.5602 163.5192 14.58665227538428 ORBCOMM FM118 1 41183U 15081E 26036.63679353 .00001019 00000+0 25279-3 0 9999 2 41183 47.0032 263.6667 0002621 154.2685 205.8331 14.58667949538527 ORBCOMM FM112 1 41184U 15081F 26036.77681068 .00001526 00000+0 36046-3 0 9998 2 41184 46.9981 171.5185 0002049 301.1606 58.9079 14.58665635539764 ORBCOMM FM113 1 41185U 15081G 26036.75406667 .00001543 00000+0 36391-3 0 9999 2 41185 46.9995 171.9895 0001707 303.8307 56.2416 14.58669307539743 ORBCOMM FM115 1 41186U 15081H 26036.31031115 .00001278 00000+0 28055-3 0 9997 2 41186 46.9998 10.3831 0000755 350.0356 10.0517 14.63053922541900 ORBCOMM FM108 1 41187U 15081J 26036.51129952 .00001427 00000+0 33938-3 0 9999 2 41187 47.0049 84.6657 0003415 297.3049 62.7489 14.58671061540857 ORBCOMM FM117 1 41188U 15081K 26036.54519271 .00001494 00000+0 35365-3 0 9990 2 41188 47.0012 83.1817 0003676 304.8006 55.2533 14.58665243540904 ORBCOMM FM116 1 41189U 15081L 26036.79985110 .00001115 00000+0 27329-3 0 9998 2 41189 47.0013 171.7577 0002009 194.3868 165.6960 14.58647180539751